QPF
0.03 0.03 0.02 0.02 0.01 0.00 0.00 0.01 0.02 0.02 0.02 0.03 0.02 0.01 0.01 0.01 0.01 0.02 0.03 0.01 0.01 0.01 0.01 0.01 0.00 0.00 0.00 0.00 0.00 0.00 0.00 0.00 0.00 0.00 0.00 0.00 0.00 0.00
0.03 0.03 0.03 0.02 0.02 0.01 0.01 0.01 0.01 0.01 0.02 0.03 0.02 0.01 0.01 0.01 0.01 0.02 0.02 0.01 0.01 0.01 0.01 0.01 0.01 0.01 0.00 0.00 0.00 0.00 0.00 0.00 0.00 0.00 0.00 0.00 0.00 0.00
0.05 0.04 0.04 0.03 0.03 0.02 0.02 0.02 0.02 0.03 0.03 0.04 0.03 0.02 0.02 0.02 0.02 0.02 0.02 0.02 0.01 0.01 0.01 0.01 0.01 0.01 0.01 0.01 0.01 0.01 0.01 0.01 0.01 0.01 0.01 0.01 0.01 0.01
0.08 0.06 0.05 0.04 0.04 0.04 0.04 0.05 0.05 0.06 0.06 0.07 0.04 0.03 0.03 0.02 0.03 0.03 0.01 0.01 0.01 0.01 0.01 0.01 0.01 0.01 0.01 0.01 0.01 0.01 0.01 0.01 0.01 0.01 0.01 0.01 0.01 0.01
0.08 0.09 0.09 0.09 0.08 0.08 0.08 0.07 0.06 0.05 0.06 0.07 0.06 0.05 0.04 0.03 0.03 0.02 0.01 0.01 0.01 0.01 0.00 0.00 0.00 0.01 0.01 0.01 0.01 0.01 0.01 0.00 0.00 0.00 0.00 0.00 0.00 0.01
0.09 0.09 0.09 0.09 0.08 0.07 0.07 0.06 0.06 0.07 0.07 0.07 0.07 0.06 0.04 0.03 0.03 0.03 0.02 0.01 0.01 0.01 0.01 0.01 0.01 0.01 0.01 0.01 0.01 0.01 0.01 0.00 0.00 0.00 0.00 0.00 0.00 0.00
0.10 0.10 0.09 0.09 0.10 0.09 0.09 0.10 0.09 0.10 0.09 0.09 0.08 0.06 0.05 0.05 0.04 0.03 0.03 0.02 0.02 0.02 0.02 0.01 0.01 0.01 0.01 0.01 0.01 0.01 0.01 0.01 0.00 0.00 0.00 0.00 0.00 0.00
0.10 0.08 0.07 0.06 0.06 0.06 0.06 0.06 0.07 0.07 0.07 0.06 0.06 0.06 0.05 0.04 0.04 0.03 0.03 0.03 0.03 0.02 0.02 0.02 0.02 0.02 0.02 0.02 0.02 0.02 0.02 0.02 0.01 0.01 0.01 0.01 0.00 0.00
0.13 0.12 0.10 0.07 0.05 0.05 0.05 0.04 0.04 0.04 0.04 0.04 0.05 0.05 0.05 0.04 0.03 0.02 0.02 0.02 0.03 0.02 0.02 0.03 0.02 0.02 0.02 0.02 0.02 0.02 0.02 0.02 0.02 0.01 0.01 0.01 0.01 0.01
0.11 0.10 0.09 0.07 0.05 0.05 0.05 0.05 0.04 0.04 0.04 0.03 0.03 0.03 0.02 0.02 0.02 0.02 0.02 0.02 0.02 0.02 0.02 0.02 0.02 0.02 0.02 0.02 0.02 0.02 0.02 0.02 0.02 0.01 0.01 0.01 0.01 0.01
0.07 0.07 0.07 0.06 0.05 0.04 0.04 0.04 0.04 0.04 0.04 0.04 0.04 0.03 0.03 0.03 0.02 0.02 0.02 0.02 0.02 0.02 0.01 0.02 0.02 0.02 0.02 0.02 0.01 0.01 0.01 0.01 0.01 0.01 0.01 0.00 0.00 0.00
0.07 0.07 0.07 0.06 0.05 0.04 0.04 0.04 0.05 0.05 0.05 0.04 0.04 0.04 0.03 0.02 0.02 0.02 0.02 0.02 0.02 0.02 0.02 0.01 0.01 0.01 0.01 0.01 0.01 0.01 0.00 0.00 0.00 0.00 0.00 0.00 0.00 0.00
0.05 0.04 0.04 0.04 0.03 0.02 0.02 0.02 0.03 0.03 0.03 0.02 0.02 0.03 0.03 0.02 0.01 0.01 0.01 0.01 0.01 0.00 0.00 0.00 0.00 0.00 0.01 0.01 0.00 0.00 0.00 0.00 0.00 0.00 0.00 0.00 0.00 0.00
0.02 0.02 0.01 0.01 0.00 0.00 0.00 0.00 0.00 0.00 0.00 0.00 0.00 0.00 0.00 0.00 0.00 0.00 0.00 0.00 0.00 0.00 0.00 0.00 0.00 0.00 0.00 0.01 0.00 0.00 0.00 0.00 0.00 0.00 0.00 0.00 0.00 0.00
0.02 0.02 0.02 0.01 0.01 0.01 0.01 0.00 0.00 0.00 0.00 0.00 0.00 0.00 0.00 0.00 0.00 0.00 0.00 0.00 0.00 0.00 0.00 0.00 0.00 0.00 0.00 0.01 0.01 0.01 0.00 0.00 0.00 0.00 0.00 0.00 0.00 0.00
0.04 0.04 0.04 0.03 0.02 0.02 0.01 0.01 0.01 0.00 0.00 0.00 0.00 0.00 0.00 0.00 0.00 0.00 0.00 0.00 0.00 0.00 0.00 0.00 0.00 0.01 0.00 0.00 0.00 0.00 0.00 0.00 0.00 0.00 0.00 0.00 0.00 0.00
0.07 0.05 0.04 0.03 0.03 0.02 0.02 0.01 0.01 0.01 0.01 0.00 0.00 0.00 0.00 0.00 0.00 0.00 0.00 0.00 0.00 0.00 0.00 0.00 0.00 0.00 0.00 0.00 0.00 0.00 0.00 0.00 0.00 0.00 0.01 0.00 0.00 0.00
0.05 0.04 0.03 0.03 0.02 0.02 0.01 0.01 0.01 0.00 0.00 0.00 0.00 0.00 0.00 0.00 0.00 0.00 0.00 0.00 0.00 0.00 0.00 0.00 0.00 0.00 0.00 0.00 0.00 0.00 0.00 0.00 0.00 0.01 0.01 0.01 0.00 0.00
0.02 0.02 0.01 0.01 0.01 0.00 0.00 0.00 0.00 0.00 0.00 0.00 0.00 0.00 0.00 0.00 0.00 0.00 0.00 0.00 0.00 0.00 0.00 0.00 0.00 0.00 0.00 0.00 0.00 0.00 0.00 0.01 0.01 0.01 0.01 0.01 0.01 0.00
0.01 0.01 0.00 0.00 0.00 0.00 0.00 0.00 0.00 0.00 0.00 0.00 0.00 0.00 0.00 0.00 0.00 0.00 0.00 0.00 0.00 0.00 0.00 0.00 0.01 0.01 0.01 0.01 0.00 0.00 0.00 0.01 0.01 0.01 0.01 0.01 0.00 0.00
0.00 0.00 0.00 0.00 0.00 0.00 0.00 0.00 0.00 0.00 0.00 0.00 0.00 0.00 0.00 0.00 0.00 0.00 0.00 0.00 0.00 0.00 0.00 0.00 0.01 0.01 0.01 0.01 0.01 0.01 0.01 0.01 0.01 0.01 0.01 0.01 0.01 0.01
0.00 0.00 0.00 0.00 0.00 0.00 0.00 0.00 0.00 0.00 0.00 0.00 0.00 0.00 0.00 0.00 0.00 0.00 0.00 0.00 0.00 0.00 0.00 0.01 0.01 0.01 0.01 0.01 0.01 0.01 0.01 0.00 0.00 0.00 0.01 0.01 0.02 0.02
0.00 0.00 0.00 0.00 0.00 0.00 0.00 0.00 0.00 0.00 0.00 0.00 0.00 0.00 0.00 0.00 0.00 0.00 0.00 0.00 0.00 0.00 0.01 0.01 0.01 0.01 0.01 0.01 0.01 0.01 0.01 0.01 0.00 0.01 0.01 0.01 0.01 0.01
MSLP
1018.35 1018.58 1018.78 1018.97 1019.13 1019.26 1019.35 1019.42 1019.45 1019.47 1019.48 1019.49 1019.51 1019.55 1019.62 1019.73 1019.87 1020.05 1020.26 1020.50 1020.75 1020.99 1021.21 1021.40 1021.53 1021.62 1021.65 1021.62 1021.56 1021.47 1021.36 1021.25 1021.15 1021.06 1020.99 1020.92 1020.86 1020.79
1018.25 1018.46 1018.65 1018.81 1018.95 1019.05 1019.14 1019.21 1019.27 1019.33 1019.39 1019.47 1019.55 1019.65 1019.77 1019.90 1020.06 1020.25 1020.45 1020.66 1020.89 1021.11 1021.32 1021.50 1021.64 1021.75 1021.80 1021.80 1021.77 1021.69 1021.60 1021.49 1021.37 1021.26 1021.15 1021.04 1020.92 1020.80
1018.15 1018.36 1018.54 1018.68 1018.79 1018.88 1018.96 1019.04 1019.14 1019.24 1019.37 1019.51 1019.66 1019.83 1020.00 1020.17 1020.34 1020.51 1020.69 1020.87 1021.05 1021.24 1021.42 1021.59 1021.74 1021.86 1021.95 1022.00 1022.01 1021.98 1021.92 1021.84 1021.73 1021.60 1021.46 1021.30 1021.14 1020.96
1018.13 1018.35 1018.52 1018.65 1018.76 1018.84 1018.93 1019.03 1019.16 1019.32 1019.50 1019.71 1019.93 1020.15 1020.35 1020.54 1020.70 1020.85 1020.98 1021.10 1021.22 1021.35 1021.49 1021.64 1021.79 1021.93 1022.06 1022.16 1022.24 1022.27 1022.26 1022.22 1022.13 1022.01 1021.85 1021.66 1021.44 1021.20
1018.27 1018.51 1018.70 1018.85 1018.96 1019.06 1019.16 1019.29 1019.45 1019.65 1019.89 1020.14 1020.41 1020.65 1020.87 1021.05 1021.19 1021.28 1021.33 1021.37 1021.41 1021.46 1021.53 1021.64 1021.77 1021.93 1022.09 1022.25 1022.38 1022.48 1022.54 1022.55 1022.50 1022.39 1022.22 1022.01 1021.75 1021.46
1018.62 1018.90 1019.13 1019.31 1019.45 1019.58 1019.71 1019.87 1020.06 1020.29 1020.56 1020.84 1021.12 1021.37 1021.57 1021.72 1021.79 1021.80 1021.77 1021.70 1021.64 1021.59 1021.58 1021.63 1021.73 1021.87 1022.05 1022.24 1022.43 1022.59 1022.70 1022.76 1022.74 1022.66 1022.50 1022.27 1021.98 1021.65
1019.21 1019.55 1019.83 1020.06 1020.25 1020.41 1020.58 1020.76 1020.97 1021.22 1021.49 1021.78 1022.05 1022.27 1022.43 1022.52 1022.51 1022.43 1022.29 1022.12 1021.93 1021.78 1021.68 1021.65 1021.69 1021.80 1021.96 1022.17 1022.38 1022.57 1022.72 1022.81 1022.81 1022.74 1022.59 1022.35 1022.04 1021.68
1020.01 1020.42 1020.77 1021.05 1021.29 1021.50 1021.69 1021.89 1022.12 1022.36 1022.62 1022.88 1023.11 1023.29 1023.39 1023.40 1023.31 1023.14 1022.89 1022.61 1022.32 1022.06 1021.86 1021.74 1021.71 1021.76 1021.88 1022.06 1022.25 1022.43 1022.58 1022.67 1022.68 1022.60 1022.44 1022.19 1021.87 1021.49
1020.98 1021.45 1021.85 1022.19 1022.48 1022.72 1022.93 1023.14 1023.36 1023.59 1023.81 1024.03 1024.21 1024.33 1024.36 1024.30 1024.14 1023.88 1023.56 1023.18 1022.81 1022.45 1022.16 1021.95 1021.83 1021.80 1021.85 1021.96 1022.09 1022.22 1022.32 1022.37 1022.34 1022.24 1022.05 1021.78 1021.44 1021.05
1022.04 1022.55 1022.99 1023.37 1023.68 1023.94 1024.16 1024.37 1024.56 1024.75 1024.93 1025.09 1025.22 1025.27 1025.25 1025.13 1024.92 1024.61 1024.23 1023.80 1023.36 1022.94 1022.58 1022.29 1022.08 1021.96 1021.91 1021.91 1021.94 1021.98 1021.98 1021.95 1021.85 1021.68 1021.44 1021.14 1020.78 1020.39
1023.10 1023.62 1024.08 1024.47 1024.78 1025.04 1025.25 1025.43 1025.59 1025.73 1025.86 1025.97 1026.04 1026.05 1025.98 1025.83 1025.59 1025.26 1024.86 1024.41 1023.94 1023.49 1023.07 1022.71 1022.42 1022.20 1022.04 1021.92 1021.83 1021.73 1021.62 1021.46 1021.26 1021.01 1020.70 1020.35 1019.97 1019.57
1024.09 1024.60 1025.05 1025.41 1025.71 1025.93 1026.11 1026.25 1026.36 1026.46 1026.54 1026.60 1026.62 1026.60 1026.51 1026.34 1026.10 1025.78 1025.39 1024.95 1024.49 1024.02 1023.58 1023.18 1022.82 1022.51 1022.23 1021.99 1021.76 1021.52 1021.27 1020.98 1020.66 1020.31 1019.93 1019.52 1019.10 1018.69
1024.99 1025.45 1025.84 1026.16 1026.41 1026.59 1026.72 1026.81 1026.87 1026.92 1026.96 1026.98 1026.97 1026.92 1026.83 1026.67 1026.44 1026.14 1025.79 1025.38 1024.94 1024.49 1024.04 1023.61 1023.20 1022.81 1022.44 1022.08 1021.73 1021.36 1020.97 1020.56 1020.13 1019.67 1019.21 1018.75 1018.30 1017.87
1025.75 1026.13 1026.45 1026.70 1026.89 1027.01 1027.08 1027.13 1027.15 1027.15 1027.15 1027.14 1027.11 1027.06 1026.96 1026.82 1026.61 1026.35 1026.03 1025.66 1025.26 1024.83 1024.39 1023.94 1023.49 1023.05 1022.61 1022.17 1021.71 1021.23 1020.74 1020.22 1019.70 1019.17 1018.64 1018.13 1017.64 1017.20
1026.36 1026.65 1026.88 1027.05 1027.17 1027.23 1027.26 1027.26 1027.24 1027.22 1027.20 1027.17 1027.13 1027.07 1026.98 1026.85 1026.66 1026.42 1026.13 1025.80 1025.42 1025.01 1024.58 1024.13 1023.67 1023.20 1022.71 1022.21 1021.68 1021.14 1020.57 1019.99 1019.40 1018.81 1018.24 1017.69 1017.19 1016.73
1026.79 1026.99 1027.14 1027.24 1027.29 1027.30 1027.30 1027.27 1027.24 1027.21 1027.17 1027.14 1027.09 1027.03 1026.94 1026.81 1026.63 1026.41 1026.13 1025.81 1025.44 1025.04 1024.62 1024.17 1023.70 1023.22 1022.71 1022.18 1021.63 1021.05 1020.45 1019.84 1019.22 1018.60 1018.01 1017.45 1016.93 1016.47
1027.03 1027.15 1027.23 1027.28 1027.29 1027.28 1027.25 1027.22 1027.20 1027.17 1027.15 1027.12 1027.08 1027.01 1026.91 1026.77 1026.59 1026.35 1026.06 1025.73 1025.36 1024.96 1024.53 1024.08 1023.61 1023.12 1022.62 1022.09 1021.53 1020.95 1020.34 1019.73 1019.11 1018.49 1017.90 1017.33 1016.82 1016.34
1027.09 1027.15 1027.18 1027.20 1027.20 1027.19 1027.18 1027.17 1027.17 1027.17 1027.17 1027.16 1027.12 1027.05 1026.94 1026.78 1026.57 1026.30 1025.99 1025.63 1025.24 1024.81 1024.37 1023.91 1023.44 1022.95 1022.45 1021.93 1021.38 1020.81 1020.23 1019.62 1019.01 1018.41 1017.82 1017.27 1016.75 1016.27
1026.98 1027.01 1027.03 1027.04 1027.06 1027.08 1027.10 1027.14 1027.19 1027.23 1027.26 1027.27 1027.25 1027.18 1027.05 1026.86 1026.62 1026.31 1025.95 1025.56 1025.13 1024.67 1024.21 1023.73 1023.25 1022.76 1022.26 1021.74 1021.21 1020.65 1020.07 1019.48 1018.88 1018.29 1017.70 1017.15 1016.63 1016.15
1026.76 1026.79 1026.82 1026.86 1026.91 1026.98 1027.06 1027.16 1027.26 1027.36 1027.43 1027.47 1027.45 1027.38 1027.23 1027.02 1026.73 1026.39 1025.99 1025.55 1025.08 1024.59 1024.10 1023.60 1023.10 1022.60 1022.09 1021.57 1021.03 1020.46 1019.88 1019.28 1018.68 1018.07 1017.48 1016.92 1016.38 1015.89
1026.50 1026.55 1026.61 1026.69 1026.80 1026.93 1027.08 1027.24 1027.40 1027.55 1027.66 1027.72 1027.72 1027.64 1027.47 1027.23 1026.91 1026.53 1026.09 1025.61 1025.11 1024.59 1024.07 1023.55 1023.03 1022.51 1021.98 1021.43 1020.87 1020.28 1019.67 1019.04 1018.41 1017.77 1017.15 1016.55 1015.99 1015.48
1026.28 1026.36 1026.47 1026.60 1026.77 1026.96 1027.17 1027.39 1027.61 1027.79 1027.93 1028.01 1028.01 1027.92 1027.74 1027.48 1027.13 1026.71 1026.24 1025.74 1025.21 1024.67 1024.12 1023.58 1023.04 1022.50 1021.94 1021.36 1020.76 1020.13 1019.47 1018.79 1018.10 1017.41 1016.74 1016.09 1015.49 1014.94
1026.16 1026.29 1026.44 1026.62 1026.84 1027.09 1027.35 1027.61 1027.86 1028.07 1028.22 1028.30 1028.30 1028.19 1028.00 1027.71 1027.34 1026.90 1026.41 1025.89 1025.34 1024.79 1024.24 1023.69 1023.13 1022.56 1021.98 1021.37 1020.72 1020.04 1019.33 1018.59 1017.83 1017.08 1016.33 1015.63 1014.97 1014.36
Thickness
5723 5722 5722 5725 5724 5725 5724 5722 5716 5711 5713 5715 5717 5715 5714 5711 5708 5707 5705 5701 5699 5697 5696 5694 5692 5690 5689 5687 5686 5684 5683 5682 5681 5680 5679 5678 5678 5678
5718 5717 5716 5720 5720 5719 5719 5718 5716 5712 5708 5711 5709 5709 5706 5707 5701 5700 5696 5694 5691 5690 5688 5686 5685 5683 5681 5680 5678 5677 5676 5674 5673 5673 5672 5671 5671 5671
5713 5712 5710 5711 5712 5712 5712 5711 5710 5708 5702 5702 5703 5699 5696 5695 5693 5691 5690 5687 5683 5680 5679 5677 5676 5674 5672 5671 5669 5668 5666 5665 5664 5664 5663 5663 5662 5662
5708 5706 5705 5705 5703 5704 5703 5703 5702 5700 5697 5693 5692 5690 5686 5684 5682 5681 5681 5680 5676 5670 5669 5667 5665 5663 5662 5660 5659 5658 5657 5655 5654 5653 5653 5653 5652 5652
5701 5699 5698 5697 5695 5695 5694 5694 5693 5693 5691 5687 5682 5679 5677 5675 5672 5671 5670 5666 5666 5661 5658 5655 5654 5652 5650 5649 5647 5646 5644 5643 5642 5642 5641 5640 5641 5641
5693 5691 5689 5688 5686 5684 5683 5682 5681 5680 5678 5676 5672 5668 5665 5662 5660 5659 5658 5656 5654 5653 5649 5646 5643 5640 5639 5637 5635 5634 5632 5630 5629 5629 5628 5628 5627 5628
5681 5678 5676 5674 5672 5672 5672 5670 5669 5667 5665 5662 5658 5655 5651 5648 5646 5646 5644 5643 5642 5639 5637 5636 5634 5632 5629 5625 5622 5619 5617 5616 5615 5614 5614 5614 5614 5614
5669 5666 5663 5660 5658 5656 5654 5653 5653 5652 5650 5647 5644 5639 5634 5633 5631 5631 5630 5629 5627 5626 5622 5622 5622 5620 5616 5613 5608 5605 5602 5601 5599 5599 5598 5598 5598 5599
5659 5655 5653 5648 5646 5644 5641 5639 5636 5633 5632 5630 5627 5622 5619 5617 5615 5616 5613 5611 5608 5608 5607 5607 5607 5604 5601 5598 5593 5589 5586 5584 5583 5582 5582 5582 5582 5583
5647 5643 5641 5637 5634 5632 5629 5625 5621 5617 5616 5614 5610 5605 5602 5599 5598 5598 5596 5596 5595 5593 5590 5590 5590 5587 5586 5582 5578 5574 5570 5568 5567 5566 5565 5565 5565 5567
5634 5630 5628 5624 5619 5618 5616 5611 5607 5602 5597 5594 5590 5587 5584 5582 5580 5582 5581 5582 5582 5579 5575 5572 5571 5570 5570 5568 5563 5558 5556 5553 5551 5550 5549 5548 5548 5549
5621 5616 5612 5609 5606 5604 5603 5598 5593 5589 5585 5582 5577 5574 5571 5568 5565 5563 5563 5562 5562 5561 5556 5550 5550 5549 5551 5552 5547 5543 5541 5539 5536 5534 5533 5531 5529 5530
5611 5604 5597 5594 5591 5589 5587 5583 5577 5575 5572 5569 5566 5562 5558 5554 5550 5545 5541 5539 5538 5536 5532 5528 5528 5527 5526 5528 5527 5525 5524 5522 5520 5519 5517 5514 5511 5509
5598 5591 5584 5580 5576 5573 5570 5565 5562 5560 5560 5556 5552 5547 5542 5537 5531 5527 5522 5517 5513 5511 5507 5504 5504 5502 5503 5506 5507 5506 5504 5502 5501 5501 5499 5497 5496 5495
5581 5574 5569 5565 5562 5558 5553 5550 5549 5548 5544 5540 5535 5530 5524 5518 5514 5511 5507 5502 5498 5495 5492 5485 5483 5482 5480 5482 5485 5485 5485 5484 5482 5482 5481 5480 5480 5481
5567 5560 5556 5553 5549 5544 5540 5538 5534 5529 5525 5521 5516 5511 5507 5503 5500 5494 5491 5487 5484 5481 5475 5469 5465 5461 5462 5461 5462 5465 5465 5465 5464 5463 5463 5463 5464 5466
5556 5553 5549 5544 5540 5534 5529 5524 5519 5515 5510 5504 5500 5496 5491 5486 5482 5477 5471 5468 5466 5463 5460 5455 5451 5448 5445 5444 5447 5447 5446 5446 5446 5445 5445 5450 5451 5452
5546 5543 5538 5533 5528 5523 5518 5512 5506 5500 5494 5489 5485 5480 5475 5470 5465 5460 5455 5450 5447 5444 5442 5439 5437 5436 5435 5434 5429 5430 5430 5430 5430 5431 5432 5437 5440 5441
5536 5531 5526 5520 5515 5510 5505 5499 5493 5486 5480 5476 5470 5465 5459 5454 5450 5445 5440 5436 5432 5430 5427 5425 5423 5421 5421 5422 5419 5412 5414 5415 5417 5420 5422 5424 5427 5430
5525 5520 5515 5509 5503 5498 5492 5487 5481 5475 5469 5463 5458 5452 5446 5442 5437 5433 5429 5423 5419 5417 5416 5413 5410 5406 5404 5403 5406 5406 5404 5405 5407 5409 5412 5415 5418 5420
5514 5509 5503 5498 5492 5486 5480 5474 5469 5463 5456 5452 5447 5440 5436 5431 5427 5422 5418 5412 5408 5409 5406 5404 5399 5393 5393 5395 5398 5401 5400 5397 5396 5398 5402 5406 5410 5413
5504 5499 5493 5487 5481 5476 5470 5465 5460 5454 5448 5444 5438 5432 5427 5423 5418 5413 5410 5406 5403 5400 5398 5396 5393 5392 5392 5392 5393 5394 5395 5394 5394 5394 5395 5395 5397 5402
5495 5490 5485 5479 5473 5467 5462 5456 5452 5447 5440 5435 5430 5425 5420 5415 5411 5407 5403 5400 5397 5394 5392 5390 5388 5387 5387 5387 5387 5389 5390 5391 5394 5396 5396 5394 5393 5396